Simultaneous Nadir Overpasses (SNOs) Predictions

Prediction of SNOs between GOES-17 and TERRA Satellite Orbit:

Table of predicted SNOs for the next 14.0 days since TLE Epoch: 1/18/2020
Index Date Time (GOES-17) GOES-17 Lat,Lon TERRA Lat,Lon Distance(km) Time Diff (sec)
1 01/18/2020 19:39:46 -0.00,-137.22 -0.02,-137.11 12.18 80
2 01/20/2020 19:27:38 -0.00,-137.22 -0.67,-134.18 346.39 80
3 01/21/2020 07:46:23 0.01,-137.20 -0.43,-139.37 245.87 80
4 01/23/2020 07:36:54 0.01,-137.19 0.17,-136.42 87.71 80
5 01/23/2020 19:55:30 -0.01,-137.20 0.94,-141.58 498.35 80
6 01/25/2020 07:24:45 0.00,-137.18 0.77,-133.47 421.01 80
7 01/25/2020 19:43:21 -0.01,-137.18 0.33,-138.63 165.16 80
8 01/27/2020 19:33:53 -0.00,-137.16 -0.34,-135.69 167.89 80
9 01/28/2020 07:52:38 0.01,-137.15 -0.76,-140.89 424.62 80
10 01/30/2020 07:40:29 0.01,-137.13 -0.14,-137.94 92.10 80




NCC Satellite Simultaneous Nadir Overpasses (SNOs) Prediction Service
